Ames, IA

3:38 AM CST on November 20, 2017 (GMT -0600)
Ames Municipal

Weather History for KAMW - December, 2011

Change the Weather History Date:

Tuesday, December 13, 2011

  Actual Average Record
Temperature  
Mean Temperature 40 °F 23 °F  
Max Temperature 45 °F 32 °F 53 °F (2014)
Min Temperature 34 °F 15 °F -2 °F (2010)
Degree Days  
Heating Degree Days 25 42  
Month to date heating degree days 505 512  
Since 1 July heating degree days 1826 1966  
Cooling Degree Days 0 0  
Month to date cooling degree days 0 0  
Year to date cooling degree days 973 752  
Moisture  
Dew Point 36 °F    
Average Humidity 83    
Maximum Humidity 96    
Minimum Humidity 70    
Precipitation  
Precipitation 0.32 in 0.03 in 2.31 in (2015)
Month to date precipitation 1.37 0.63  
Year to date precipitation 30.63  
Sea Level Pressure  
Sea Level Pressure 30.22 in    
Wind  
Wind Speed 4 mph (SE)    
Max Wind Speed 14 mph    
Max Gust Speed 17 mph    
Visibility 6 miles    
Events Rain    
T = Trace of Precipitation, MM = Missing Value Source: NWS Daily Summary

Daily Weather History Graph

Daily Weather History Graph

Search for Another Location

Airport or City:

Trip Planner

Search our weather history database for the weather conditions in past years. The results will help you decide how hot, cold, wet, or windy it might be!

Date:

Astronomy

Dec. 13, 2011 Rise Set
Actual Time 7:33 AM CST 4:43 PM CST
Civil Twilight 7:02 AM CST 5:15 PM CST
Nautical Twilight 6:26 AM CST 5:50 PM CST
Astronomical Twilight 5:53 AM CST 6:24 PM CST
Moon 8:00 PM CST (12/13) 9:42 AM CST (12/13)
Length of Visible Light 10h 12m
Length of Day
9h 09m
Waning Gibbous, 90% of the Moon is Illuminated
Dec 13
Waning Gibbous
Dec 17
Last Quarter
Dec 24
New
Jan 1
First Quarter
Jan 9
Full

Hourly Weather History & Observations

Time (CST) Temp. Windchill Dew Point Humidity Pressure Visibility Wind Dir Wind Speed Gust Speed Precip Events Conditions
12:53 AM 35.1 °F - 33.1 °F 92% 30.31 in 7.0 mi Calm Calm - N/A   Overcast
1:53 AM 35.1 °F - 32.0 °F 89% 30.31 in 7.0 mi Calm Calm - N/A   Overcast
2:53 AM 35.1 °F - 33.1 °F 92% 30.32 in 7.0 mi Calm Calm - N/A   Overcast
3:53 AM 35.1 °F - 32.0 °F 89% 30.31 in 7.0 mi Calm Calm - N/A   Overcast
4:53 AM 34.0 °F - 32.0 °F 92% 30.32 in 6.0 mi Calm Calm - N/A   Overcast
5:53 AM 35.1 °F - 32.0 °F 89% 30.32 in 7.0 mi Calm Calm - N/A   Overcast
6:53 AM 34.0 °F - 32.0 °F 92% 30.32 in 7.0 mi Calm Calm - N/A   Overcast
7:53 AM 35.1 °F 32.2 °F 32.0 °F 89% 30.32 in 6.0 mi SE 3.5 mph - N/A   Overcast
8:53 AM 37.0 °F 33.3 °F 33.1 °F 86% 30.32 in 8.0 mi SE 4.6 mph - N/A   Overcast
9:53 AM 37.9 °F 35.5 °F 34.0 °F 86% 30.34 in 10.0 mi ESE 3.5 mph - N/A   Overcast
10:53 AM 39.0 °F 36.8 °F 34.0 °F 82% 30.32 in 10.0 mi SE 3.5 mph - N/A   Overcast
11:53 AM 41.0 °F 38.0 °F 34.0 °F 76% 30.28 in 10.0 mi SE 4.6 mph - N/A   Overcast
12:53 PM 43.0 °F 39.5 °F 35.1 °F 74% 30.28 in 10.0 mi South 5.8 mph - N/A   Overcast
1:21 PM 44.6 °F 40.7 °F 35.6 °F 71% 30.24 in 10.0 mi ESE 6.9 mph - N/A   Overcast
1:53 PM 45.0 °F 41.8 °F 36.0 °F 71% 30.25 in 10.0 mi SE 5.8 mph - N/A   Overcast
2:53 PM 44.1 °F 39.5 °F 35.1 °F 71% 30.22 in 8.0 mi SE 8.1 mph - N/A   Overcast
3:53 PM 42.1 °F 37.1 °F 36.0 °F 79% 30.19 in 5.0 mi SE 8.1 mph - 0.00 in Rain Light Rain
4:41 PM 41.0 °F 37.1 °F 37.4 °F 87% 30.19 in 6.0 mi SE 5.8 mph - 0.02 in   Overcast
4:51 PM 39.2 °F 35.9 °F 37.4 °F 93% 30.19 in 6.0 mi SE 4.6 mph - 0.02 in   Overcast
4:53 PM 39.9 °F 36.7 °F 37.9 °F 93% 30.21 in 6.0 mi SSE 4.6 mph - 0.02 in   Overcast
5:53 PM 39.9 °F - 37.0 °F 89% 30.20 in 6.0 mi Calm Calm - N/A   Overcast
6:01 PM 39.2 °F 37.0 °F 37.4 °F 93% 30.18 in 6.0 mi ENE 3.5 mph - N/A   Overcast
6:36 PM 39.2 °F 35.9 °F 37.4 °F 93% 30.18 in 2.5 mi ESE 4.6 mph - 0.01 in Rain Light Rain
6:53 PM 39.0 °F 36.8 °F 37.9 °F 96% 30.19 in 1.8 mi ESE 3.5 mph - 0.01 in   Overcast
7:53 PM 37.9 °F 33.5 °F 37.9 °F 100% 30.17 in 1.2 mi ESE 5.8 mph - 0.03 in Rain Light Rain
8:24 PM 37.4 °F 30.8 °F 37.4 °F 100% 30.14 in 2.0 mi SE 9.2 mph - 0.00 in   Overcast
8:53 PM 39.0 °F 31.8 °F 37.9 °F 96% 30.14 in 2.5 mi SSE 11.5 mph - 0.00 in   Overcast
9:03 PM 39.2 °F 32.5 °F 37.4 °F 93% 30.12 in 3.0 mi SE 10.4 mph - N/A   Overcast
9:22 PM 39.2 °F 31.6 °F 37.4 °F 93% 30.10 in 2.5 mi SE 12.7 mph - 0.02 in Rain Light Rain
9:53 PM 39.0 °F 32.8 °F 37.9 °F 96% 30.12 in 3.0 mi SSE 9.2 mph - 0.09 in Rain Light Rain
10:53 PM 39.0 °F 35.7 °F 37.9 °F 96% 30.11 in 5.0 mi SE 4.6 mph - 0.06 in Rain Light Rain
11:19 PM 39.2 °F 35.0 °F 37.4 °F 93% 30.09 in 2.5 mi SE 5.8 mph - 0.06 in Rain Rain
11:34 PM 39.2 °F 35.9 °F 37.4 °F 93% 30.09 in 4.0 mi SSE 4.6 mph - 0.09 in Rain Light Rain
11:53 PM 39.0 °F 34.0 °F 37.9 °F 96% 30.10 in 3.0 mi SSE 6.9 mph - 0.11 in Rain Light Rain